Wind_Speed
65 69 69 69 74 79 81 82 82 81 80 79 77 75 74 72 70 69 67 67 68 69 69 69 68 67 67 67 66 65 65 64 63 62 60 57 55 54 53 52 51 50 50 49 48 46 45 43 42 41 39 38 37 35 34 32 31 30 29 28 26 25 25 26 25 25 28 24 20 21 21 20 19 17 16 16 16 16 16 15 15 14 13 13 13 13 13 14
63 67 69 69 70 75 80 82 83 83 82 81 79 78 76 75 73 71 69 68 68 69 70 70 70 69 68 68 67 67 66 65 65 63 60 58 57 56 54 54 54 52 51 51 50 48 47 46 44 44 42 41 40 38 36 34 33 31 30 29 27 25 27 29 28 28 29 23 20 23 23 21 20 20 19 18 17 17 18 18 17 15 14 14 13 13 13 14
62 65 68 70 69 71 76 81 82 83 83 82 81 80 78 77 75 73 72 70 69 69 70 70 71 70 69 68 68 68 67 67 66 63 60 60 59 57 56 56 55 54 52 52 52 51 50 48 47 46 45 44 42 40 38 37 35 33 33 30 27 27 30 31 31 29 27 24 23 24 24 23 22 22 22 20 19 19 20 20 19 18 16 15 14 14 14 14
64 64 66 69 70 70 72 77 82 83 83 84 83 82 80 78 77 75 74 72 70 69 70 70 71 72 71 70 69 69 69 68 67 63 62 62 61 59 59 58 56 56 54 53 54 53 51 50 49 48 46 46 45 43 42 40 37 35 35 31 29 30 31 33 32 29 27 27 26 24 25 25 23 23 23 22 22 22 22 20 19 18 16 16 16 16 15 15
67 66 66 68 70 71 70 73 79 83 83 84 84 84 82 80 79 78 76 74 73 71 70 71 71 72 72 72 70 70 70 70 68 65 64 64 62 61 61 60 58 57 56 55 55 54 53 52 52 50 49 48 47 46 44 41 38 38 37 33 32 33 33 36 32 26 27 28 27 26 28 26 23 25 25 24 25 25 21 18 18 18 18 19 19 18 17 17
70 69 68 68 69 71 71 71 74 80 83 83 84 84 84 83 80 79 78 76 75 73 72 71 71 72 73 74 73 71 71 70 69 66 66 65 64 63 63 62 59 58 57 57 56 56 55 54 55 53 51 50 49 48 45 42 41 41 39 35 34 34 35 37 30 25 29 30 29 29 28 25 24 27 26 25 27 25 21 19 19 19 20 22 21 20 19 18
72 72 71 69 69 70 72 71 71 76 81 82 83 84 85 84 82 80 79 78 76 75 74 72 72 72 73 74 75 74 72 68 68 68 67 66 65 64 65 64 61 60 59 58 58 57 57 56 56 55 52 52 50 49 46 44 44 43 41 38 36 37 38 38 32 28 32 33 31 30 29 27 28 29 27 26 27 26 23 23 22 20 21 22 23 22 21 20
75 75 74 72 71 71 72 72 71 72 77 81 82 83 85 85 84 82 80 79 78 77 76 74 73 72 73 74 75 76 73 67 66 69 68 67 66 66 66 65 63 61 60 59 58 58 58 57 56 55 54 53 51 50 48 46 47 47 44 41 39 41 41 39 35 32 33 35 32 31 31 30 30 29 27 27 28 27 25 25 23 22 22 22 23 24 23 23
78 78 77 75 72 72 72 73 72 71 73 78 81 82 84 85 85 83 82 81 79 78 77 76 75 74 73 74 75 75 72 67 67 69 70 68 67 67 67 66 64 62 61 60 58 58 58 58 57 56 55 55 53 52 50 50 50 49 47 43 42 45 43 40 37 34 35 36 34 32 32 32 32 30 28 27 29 29 27 26 25 25 25 24 23 24 24 24
81 80 80 78 75 73 73 73 72 72 71 74 79 81 82 84 85 84 82 81 81 79 79 78 77 76 75 74 75 73 68 68 70 71 70 69 69 68 68 67 65 64 63 61 60 59 58 58 58 58 57 56 55 55 53 53 52 50 49 46 46 48 45 42 40 38 38 38 37 34 34 33 33 32 28 28 30 30 28 27 27 27 26 27 25 24 24 25
84 83 82 80 77 74 74 73 72 71 70 70 74 79 81 83 84 84 83 82 81 80 80 79 78 77 77 76 74 70 67 69 72 73 71 69 69 70 69 69 67 65 65 64 62 60 59 59 60 60 60 58 58 57 56 56 53 52 53 49 48 50 48 45 44 42 39 39 39 37 36 35 35 31 27 28 30 31 30 30 30 29 28 29 28 27 26 25
86 85 84 82 79 76 74 73 72 71 69 68 71 74 78 80 82 83 83 82 81 81 80 80 79 79 79 78 73 69 68 70 72 74 73 70 69 70 70 70 69 68 66 66 64 63 61 61 62 62 62 61 60 59 57 56 54 54 55 51 49 50 49 47 46 44 41 42 41 40 40 37 34 30 27 30 32 32 33 32 32 31 30 30 30 29 28 27
86 86 85 83 80 77 75 73 72 70 68 65 68 70 71 74 78 80 82 81 81 81 80 81 80 80 80 78 72 69 70 70 72 74 74 72 69 69 70 71 71 70 69 68 66 65 64 64 63 62 63 63 62 60 58 56 56 56 55 52 50 50 51 48 47 45 44 45 43 43 43 38 34 31 31 33 34 35 34 33 33 32 31 31 31 31 30 29
83 85 85 84 81 78 75 74 71 70 68 64 65 67 65 66 71 76 79 80 79 79 80 81 81 81 81 77 73 72 72 71 72 73 73 73 71 68 69 71 72 71 70 70 68 68 67 66 64 63 63 63 62 61 59 58 59 58 56 54 52 52 52 50 49 46 45 47 45 46 45 39 35 35 36 36 36 36 34 33 34 33 33 32 32 32 31 31
77 81 84 83 81 78 75 75 72 68 67 66 65 64 63 62 64 70 77 78 78 78 79 80 81 82 82 78 75 75 73 72 70 71 72 72 72 70 69 70 73 73 72 71 71 70 68 67 65 64 64 63 62 62 62 61 60 58 57 55 52 53 52 50 50 47 45 47 48 50 47 40 38 38 39 38 36 37 35 34 35 34 33 33 32 32 32 31
68 75 81 82 80 77 76 75 72 67 65 66 65 62 60 59 59 64 71 76 77 77 78 79 80 82 82 80 78 76 74 72 69 70 71 70 71 72 70 70 71 73 74 73 73 72 70 68 67 66 65 64 64 63 63 63 62 60 58 56 54 53 52 50 51 49 47 48 51 52 47 42 41 40 42 40 38 38 37 36 36 35 35 34 32 32 31 31
61 67 75 80 79 77 76 75 72 68 64 64 66 62 58 58 58 60 65 72 75 75 76 77 79 81 83 82 79 76 74 72 70 70 70 70 70 71 71 71 70 71 73 75 75 73 72 71 69 68 67 66 65 65 65 65 64 62 59 56 56 55 52 52 51 49 50 52 52 52 48 45 44 42 43 43 41 40 38 37 37 36 36 35 33 31 31 31
55 61 69 76 79 77 76 75 72 69 65 64 65 62 58 57 55 55 61 67 72 75 76 78 80 82 83 82 78 75 74 72 71 71 70 70 70 70 70 71 71 70 71 74 76 75 74 73 72 71 70 70 68 68 68 66 63 61 58 56 57 57 55 54 52 50 53 54 52 50 48 47 45 44 45 45 44 42 39 39 40 39 38 36 34 32 32 31
51 57 64 73 78 77 76 74 72 69 65 65 64 60 57 57 54 53 59 64 69 75 77 78 80 82 82 80 77 76 75 73 73 73 72 70 69 70 69 70 72 72 72 72 73 75 76 75 75 75 73 72 70 69 68 65 62 60 58 57 57 58 58 56 55 54 54 54 52 49 48 47 46 45 46 46 46 45 42 40 41 42 40 37 35 34 33 32
51 54 60 69 76 78 75 73 72 69 65 64 62 59 59 60 60 58 60 64 65 68 71 73 75 77 79 80 77 77 76 75 76 75 73 71 69 69 68 69 70 71 72 71 70 72 77 78 77 75 72 71 70 69 67 65 62 61 60 60 59 59 58 57 57 58 57 55 53 50 47 47 47 46 47 47 48 48 46 43 42 42 41 39 37 36 35 34
50 52 56 64 73 77 74 70 70 69 67 65 62 63 65 62 63 60 56 58 60 61 66 70 72 73 77 78 76 77 77 76 76 75 74 72 70 68 67 68 70 70 71 71 70 68 72 77 77 73 70 70 70 69 68 66 63 62 62 61 60 60 59 58 59 59 59 57 54 52 51 49 48 47 47 49 49 50 48 44 43 42 42 42 40 38 37 36
48 51 54 60 68 74 73 68 69 70 68 67 65 66 68 64 60 56 50 50 52 55 63 69 72 74 77 78 76 75 74 74 73 73 73 72 71 69 67 67 69 70 70 72 72 70 70 71 71 71 71 71 72 71 69 67 65 64 64 63 63 62 61 59 59 59 60 60 57 55 55 53 50 48 48 49 50 49 48 45 42 43 44 44 42 40 39 38
46 49 53 57 63 71 72 67 67 70 70 69 68 66 66 64 60 57 52 49 48 51 57 64 69 73 76 78 78 76 73 73 72 71 71 72 71 68 66 65 65 67 70 72 73 74 73 66 63 68 72 73 74 73 72 70 68 67 66 66 65 64 64 62 59 60 61 62 61 59 58 57 53 50 48 47 48 48 47 44 43 43 44 44 43 42 41 40
44 47 52 55 59 67 71 66 66 71 71 69 67 64 62 62 60 60 56 51 50 50 52 57 62 67 72 76 76 75 73 73 72 70 70 70 69 68 66 65 63 64 67 70 71 73 72 67 62 63 67 73 76 75 73 72 71 70 69 68 67 67 66 63 62 62 62 63 64 62 61 59 54 51 49 47 48 49 47 44 43 43 43 43 43 43 42 40
43 46 51 54 57 63 67 65 65 70 71 68 65 62 62 61 58 58 56 54 53 51 52 57 60 63 68 72 72 70 70 70 71 70 69 68 67 67 66 64 63 63 64 66 68 69 68 68 68 65 63 67 73 77 75 73 72 71 70 69 68 68 67 65 63 64 64 65 65 64 64 61 55 52 51 49 49 50 47 43 41 41 42 42 42 41 40 39
43 45 50 54 55 61 65 65 66 69 70 68 64 62 62 61 57 56 56 56 55 52 53 58 61 65 68 70 70 68 68 68 68 68 67 66 66 65 64 65 64 62 61 62 64 67 66 67 69 69 67 65 67 72 74 74 73 72 71 69 68 68 67 66 65 65 66 66 67 66 65 64 59 54 52 51 50 50 49 44 40 40 41 41 40 39 39 39
43 44 50 54 55 61 66 64 65 70 70 67 63 61 60 60 57 57 57 59 59 54 51 53 58 65 67 68 69 67 68 69 67 67 66 65 65 64 63 65 64 62 60 60 63 65 65 65 67 68 70 70 67 65 66 70 74 73 70 69 69 69 68 68 67 67 68 68 69 68 66 67 65 57 52 51 51 50 50 47 42 40 40 39 39 38 38 38
43 44 48 53 56 61 63 60 64 69 67 64 62 61 59 58 56 59 60 62 62 57 51 48 50 58 63 66 68 67 67 66 64 65 66 64 64 64 63 63 62 62 60 61 62 63 63 64 64 64 67 71 70 64 61 63 68 70 72 71 70 69 68 68 68 69 69 69 71 70 66 69 69 60 53 53 53 52 51 50 46 43 41 40 40 39 38 38
43 44 46 51 57 61 59 59 65 68 64 63 63 61 60 58 56 58 63 64 61 56 53 49 47 53 60 65 66 65 65 64 63 63 62 63 63 63 63 61 59 61 61 61 60 59 60 61 61 62 64 66 66 65 64 63 62 63 67 71 71 71 70 68 69 70 70 73 75 72 68 69 71 64 58 57 56 53 52 52 49 45 43 43 42 41 39 39
44 44 46 50 56 59 56 59 66 67 65 65 64 62 62 62 58 59 65 66 59 55 53 51 49 51 55 61 65 64 64 65 65 61 60 61 61 61 60 58 58 60 61 61 60 58 59 58 57 59 61 61 61 63 65 64 63 62 62 64 66 71 72 72 72 71 72 76 76 73 68 69 73 68 62 62 60 56 54 54 52 48 45 43 43 42 41 40
44 44 46 50 55 56 55 59 66 67 65 65 65 63 63 64 62 63 66 63 57 55 52 48 49 50 51 57 62 63 63 65 65 62 60 61 61 59 59 59 61 61 60 62 62 61 61 59 56 55 57 57 58 62 63 62 64 65 64 62 61 64 67 71 74 74 77 79 75 72 70 71 75 71 66 65 63 59 57 56 55 52 47 44 43 43 42 41
44 45 47 51 55 55 56 60 64 65 64 66 67 65 66 66 65 67 67 59 56 56 50 45 45 47 48 51 56 59 61 63 64 64 63 61 61 60 59 60 62 62 63 63 63 62 63 62 57 54 55 56 57 59 60 60 62 65 66 66 65 63 63 66 70 75 80 79 73 73 73 74 77 74 68 67 65 63 60 58 57 55 50 46 45 45 44 43
46 47 49 52 54 54 56 62 64 64 65 67 67 66 68 69 67 66 65 60 58 55 48 41 38 38 44 49 51 55 58 59 60 62 63 62 61 61 60 59 58 59 61 61 61 61 62 63 60 58 56 56 56 57 58 59 60 62 64 67 68 69 68 67 68 71 76 76 75 74 75 78 80 75 70 69 67 66 63 60 59 57 54 50 48 48 46 44
47 48 50 51 53 52 57 64 65 64 68 68 65 66 71 72 68 63 60 59 58 52 47 45 39 36 41 47 49 52 55 58 57 57 60 62 62 63 62 60 59 59 58 58 59 60 62 63 62 61 59 56 56 56 56 56 57 58 59 60 62 65 68 69 68 69 70 70 70 72 76 81 79 73 70 70 68 66 66 65 62 61 58 55 52 50 49 47
48 50 51 52 52 53 59 66 64 64 69 67 64 68 73 73 70 64 60 58 56 50 47 48 44 39 40 43 47 50 53 56 57 58 59 61 62 63 62 61 60 59 59 60 60 59 61 63 60 58 58 58 57 56 56 56 55 54 54 55 57 57 58 61 65 68 69 68 67 68 74 78 76 71 69 69 69 68 67 66 65 64 62 59 56 54 52 51
50 50 52 54 54 56 61 64 63 66 70 67 64 70 72 70 69 64 58 55 52 47 45 46 45 42 40 42 45 48 51 54 55 57 59 59 60 62 62 60 59 58 58 59 60 59 61 62 60 58 58 58 58 57 58 57 56 56 56 56 55 54 53 53 57 60 63 67 69 69 71 72 72 71 69 68 69 69 67 66 65 65 65 63 60 58 57 56
50 51 54 55 55 58 62 62 64 70 71 65 64 70 71 66 66 63 57 53 50 47 46 45 44 41 38 39 43 45 48 53 55 56 57 57 59 60 60 59 58 58 57 56 57 58 59 60 60 60 59 57 56 57 58 56 55 58 60 57 53 53 53 52 53 56 57 61 67 70 71 70 70 71 69 67 66 66 66 66 66 65 65 65 64 61 60 60
51 53 55 56 56 59 63 63 64 68 67 63 64 69 67 63 64 63 59 56 53 51 49 47 45 42 37 34 37 40 44 49 53 55 56 57 58 58 57 58 58 57 56 55 56 57 58 59 59 59 59 59 58 59 60 57 56 57 56 55 54 55 56 55 57 59 59 60 63 65 67 68 69 69 67 65 63 63 64 65 65 65 65 66 65 64 63 62
53 54 55 56 57 60 64 65 65 67 65 63 66 69 66 61 62 62 59 58 56 53 50 48 45 43 38 32 31 36 42 44 47 50 54 57 57 55 55 56 56 56 56 56 57 58 57 58 58 58 58 59 61 63 63 61 61 60 57 56 56 56 57 59 60 60 60 61 63 64 66 67 65 64 62 61 61 63 65 65 65 64 64 64 65 65 64 63
55 55 54 55 58 61 63 62 64 65 64 64 67 69 68 61 58 59 58 58 57 53 50 47 44 42 40 35 32 35 39 40 42 46 50 53 53 52 53 54 54 54 54 55 56 57 57 57 58 58 59 60 61 63 63 61 63 65 64 62 60 58 58 59 60 60 59 60 62 65 68 68 64 61 61 60 59 60 61 63 63 61 59 60 61 63 64 64
56 55 54 55 58 62 62 60 63 63 60 62 66 68 68 62 56 56 58 58 57 54 50 47 45 42 40 39 38 37 37 39 42 44 46 48 48 49 51 51 51 52 53 55 56 57 58 57 56 58 59 60 61 60 60 61 62 64 65 65 64 61 60 60 61 62 61 61 61 61 64 65 62 60 60 59 57 55 54 55 58 58 56 54 53 55 59 62
56 54 54 56 59 61 61 59 61 61 57 61 66 66 65 61 55 55 57 57 56 53 49 47 45 42 39 37 37 37 38 38 39 40 42 43 43 44 46 47 49 51 53 55 55 55 56 56 56 57 57 58 58 59 61 61 61 62 64 65 64 63 62 60 61 61 61 62 61 61 63 64 60 57 57 57 56 54 52 52 54 57 58 56 52 50 52 56
55 52 51 56 59 60 60 59 60 60 57 60 64 64 62 58 55 55 56 55 54 52 49 46 42 40 38 36 35 35 36 37 37 36 37 39 40 43 45 47 49 51 52 54 54 53 54 55 56 56 56 56 55 56 59 59 59 61 63 64 65 65 63 61 61 61 61 61 59 59 64 62 56 54 54 55 55 54 54 54 55 57 59 60 57 53 51 52
53 49 49 54 57 56 56 57 59 59 56 58 64 64 61 57 57 58 57 55 54 52 49 46 41 39 38 36 35 34 34 35 35 34 35 37 40 43 45 46 47 50 52 52 53 53 54 56 57 57 57 59 59 59 60 59 58 58 59 61 63 64 63 64 64 63 65 64 59 60 63 56 50 52 52 52 54 55 56 58 59 59 60 61 61 58 55 53
51 48 49 53 55 54 53 54 57 56 53 57 64 64 59 56 57 58 57 55 54 53 51 48 43 39 37 36 35 34 34 34 34 34 35 37 39 42 45 46 47 49 50 51 52 53 54 56 58 59 61 62 63 64 62 61 60 59 58 58 59 61 62 65 66 65 67 67 64 65 63 54 49 51 51 52 55 56 57 59 59 60 60 60 61 60 58 57
49 47 48 51 53 54 53 53 55 54 53 59 65 62 58 56 55 57 57 54 53 53 51 49 44 40 38 35 34 34 33 33 32 33 34 35 38 41 44 46 47 49 50 52 54 54 55 56 57 59 61 61 61 61 61 62 62 62 61 58 58 58 59 61 65 67 68 68 68 67 63 57 52 50 50 54 57 56 57 58 58 59 60 60 60 59 59 59
47 44 44 48 50 52 54 55 55 52 54 62 63 56 56 58 56 57 58 54 49 49 50 49 46 42 38 36 35 34 33 33 32 33 34 36 37 39 42 45 47 48 50 51 53 54 56 58 57 57 59 59 57 58 61 64 65 65 64 62 61 61 59 58 60 62 64 67 69 67 63 60 55 50 53 57 57 54 55 56 57 58 60 61 61 59 57 58
45 42 40 44 46 49 53 55 52 49 54 64 61 52 54 59 58 58 59 54 48 46 47 48 45 42 39 38 37 36 35 35 35 36 38 38 38 39 41 43 45 47 48 49 50 52 54 56 56 57 58 58 58 59 62 64 65 67 67 66 65 65 65 64 62 61 62 65 67 66 64 61 55 53 56 59 58 57 57 57 57 58 59 60 61 60 58 57
42 42 38 39 41 44 49 50 47 48 56 63 59 53 54 58 57 57 57 54 50 46 43 42 43 42 40 38 37 36 35 35 35 37 39 40 40 40 41 42 44 45 46 48 48 48 49 51 53 56 58 59 59 60 61 63 65 66 67 67 68 68 68 69 68 66 65 66 66 65 66 63 56 53 55 57 58 60 59 57 57 57 57 58 58 59 59 58
39 40 37 36 38 41 46 47 46 50 59 60 55 53 55 56 55 56 57 54 50 47 43 41 43 43 40 38 37 35 34 34 34 35 38 39 40 40 42 43 44 43 44 45 45 47 48 49 49 52 56 58 59 60 61 63 65 66 67 68 69 70 70 71 71 70 69 70 68 66 68 67 59 54 55 56 57 59 58 58 57 57 57 57 57 59 59 58
36 38 37 35 36 38 43 45 46 53 59 55 51 52 55 55 52 53 55 54 50 47 46 45 45 44 41 39 37 35 35 35 35 35 37 38 39 40 42 43 44 43 43 43 43 46 48 49 48 50 53 55 56 59 62 63 65 68 69 68 69 70 71 71 70 69 70 71 71 71 72 69 60 57 59 59 58 60 61 60 58 58 59 59 60 62 63 62
35 37 36 36 35 36 40 42 46 55 57 49 47 51 54 52 49 49 52 53 48 44 44 46 48 46 42 39 38 37 38 37 36 37 38 39 41 42 43 44 44 43 44 44 46 47 48 49 49 50 52 52 52 55 60 62 65 69 70 67 67 68 69 70 70 70 70 71 72 74 73 69 63 62 65 63 62 64 66 65 63 62 62 63 63 64 66 66
Wind_Direction
244 241 240 239 236 235 236 236 234 234 234 234 233 232 231 229 228 228 228 228 229 229 229 229 228 227 225 224 223 223 223 223 223 223 224 224 225 225 224 225 225 223 224 226 226 227 226 224 224 225 225 225 225 224 221 220 221 221 221 220 217 217 220 222 219 218 223 218 214 223 223 224 226 229 232 231 230 227 223 221 219 217 214 215 218 218 214 210
245 243 241 239 238 236 235 235 235 234 234 234 233 232 232 230 228 228 228 227 228 229 229 229 228 228 227 225 224 223 223 223 223 222 223 223 224 225 224 225 225 224 224 225 226 227 227 226 224 224 225 226 227 225 223 222 222 221 221 221 218 219 222 223 221 220 223 218 213 221 223 222 224 226 229 230 230 229 226 225 222 220 219 219 221 223 221 217
246 244 242 240 239 237 235 234 235 234 233 233 233 232 232 231 229 228 228 227 227 228 229 229 228 228 228 227 225 224 223 223 223 222 221 222 223 224 224 225 225 224 223 225 226 227 227 227 226 225 225 227 228 227 225 224 223 222 222 221 217 220 224 225 223 222 223 219 214 219 222 221 222 224 226 229 231 230 228 226 225 222 223 224 224 226 226 225
247 245 242 240 239 238 236 234 233 234 234 233 233 233 232 231 230 229 228 227 227 227 228 228 228 228 228 228 227 225 223 223 222 221 220 221 221 223 224 224 225 225 224 224 226 227 227 228 228 227 226 228 229 229 228 225 224 224 223 220 218 222 225 228 225 222 223 222 218 219 222 221 220 224 225 227 230 231 231 230 230 228 229 230 229 229 229 229
248 246 243 241 239 238 238 235 233 233 234 233 232 233 232 231 231 230 228 228 227 226 227 228 228 228 227 228 228 227 224 223 222 220 220 220 220 222 223 224 224 225 225 224 225 227 227 227 229 228 226 227 228 229 230 228 227 227 226 221 221 223 226 230 225 220 227 226 221 220 222 221 220 224 225 226 230 230 232 234 234 231 230 231 229 229 230 231
246 246 244 242 240 238 238 237 234 232 233 234 233 232 232 231 230 230 229 228 227 226 226 227 227 228 228 227 227 227 226 224 223 221 220 220 219 221 223 223 223 225 226 225 225 227 228 227 228 229 228 228 228 230 230 230 230 229 228 223 223 225 227 232 226 220 229 228 223 223 223 222 221 224 224 226 230 229 229 232 232 228 228 231 230 230 231 231
244 245 244 242 240 238 237 236 235 233 231 233 233 232 232 231 230 230 230 229 228 227 226 226 227 227 228 228 227 227 226 225 224 222 220 219 219 220 222 222 222 224 225 226 226 226 228 228 229 230 229 229 229 230 230 230 232 231 229 226 225 227 227 230 225 219 228 229 225 224 224 223 222 223 223 227 231 229 226 229 231 230 230 231 232 232 232 231
242 242 243 242 239 238 237 236 235 234 231 231 233 233 232 232 230 230 230 229 229 228 227 226 226 227 227 228 228 227 226 224 226 225 222 219 219 219 222 223 221 223 225 226 226 226 227 228 229 230 230 231 230 231 231 230 233 233 231 228 227 229 229 229 225 221 229 232 227 226 226 224 224 223 221 225 231 229 226 228 230 231 232 232 232 233 233 233
240 240 240 240 238 237 236 235 235 234 232 230 231 232 232 232 231 230 229 229 229 229 228 227 226 226 227 228 228 228 226 224 226 227 224 220 219 219 221 223 221 222 224 225 226 227 227 228 230 230 230 231 231 231 231 230 232 234 232 229 230 232 230 230 228 223 228 233 230 227 227 226 226 223 220 224 230 230 227 228 228 230 233 233 233 233 234 235
239 238 238 238 237 236 235 235 234 233 232 231 230 231 232 232 231 230 229 229 229 229 229 228 226 226 226 227 228 228 226 225 226 227 226 222 220 219 220 222 222 221 223 224 226 227 227 228 229 230 230 230 231 231 231 231 231 234 234 230 231 233 231 230 229 225 226 232 231 229 229 228 227 224 220 224 230 231 229 229 229 228 232 234 234 233 233 235
237 236 236 237 236 235 234 234 233 232 232 232 231 230 231 232 231 230 229 229 229 229 229 229 228 226 226 226 227 227 226 226 226 227 227 224 221 220 219 220 221 221 222 223 225 226 227 227 228 229 230 230 230 230 231 232 232 233 235 231 230 234 233 229 230 228 227 231 233 232 231 229 228 224 221 226 229 232 231 229 230 228 229 234 235 234 234 233
235 235 234 235 234 233 233 233 232 231 231 231 231 230 231 231 232 231 230 229 229 229 229 229 229 227 227 225 224 225 226 226 226 227 227 226 224 221 220 220 220 220 222 223 224 225 226 227 227 228 230 230 230 230 231 232 233 233 235 234 231 235 235 231 230 230 230 232 232 234 233 229 229 225 222 228 229 229 231 230 229 229 228 231 234 235 235 235
233 233 233 233 232 231 231 231 231 230 228 230 231 230 230 231 231 232 231 230 229 229 228 229 229 228 227 225 223 224 225 225 226 227 227 226 226 223 221 220 220 219 220 222 223 224 226 227 228 228 230 231 231 231 231 232 233 234 235 236 233 235 238 235 233 230 231 234 232 234 234 229 229 228 224 227 229 228 229 230 230 230 230 230 233 235 236 237
232 231 231 231 231 229 229 229 230 229 226 227 230 230 230 231 231 232 232 231 230 229 228 228 229 229 228 225 222 223 225 225 226 227 228 227 226 225 224 222 221 219 219 220 222 224 226 227 229 229 230 232 232 233 233 232 232 234 235 236 235 236 238 238 237 233 231 236 236 236 235 229 228 230 228 227 230 231 228 230 232 231 232 232 232 234 236 237
232 230 229 229 229 227 227 227 228 228 225 225 228 229 229 231 231 232 232 231 231 230 229 228 228 229 227 224 223 223 224 225 226 227 229 228 227 226 226 226 223 221 219 219 221 222 224 226 228 230 231 232 232 233 233 233 233 233 235 236 236 237 238 238 240 237 232 235 239 238 235 231 228 231 233 229 228 233 231 230 232 232 233 233 233 234 235 238
232 230 228 227 227 225 224 225 225 225 224 224 226 226 226 229 231 233 232 231 230 230 229 229 228 228 227 225 223 223 223 224 226 227 229 229 228 227 226 228 227 224 221 220 220 221 222 224 226 228 230 232 233 233 233 234 234 233 234 236 237 238 239 239 240 240 236 235 237 239 237 233 231 231 235 233 227 230 233 233 233 233 234 234 235 236 237 238
231 228 227 225 224 223 222 223 223 223 222 222 224 223 222 226 231 234 234 231 230 230 229 229 228 227 226 224 224 223 223 224 225 227 229 229 229 228 227 228 229 228 225 222 221 220 221 223 224 226 229 230 231 233 233 234 234 234 234 235 237 239 239 239 240 240 241 238 236 238 238 236 234 232 235 236 231 228 230 235 237 235 235 235 235 236 238 239
232 228 226 223 221 221 221 221 221 220 219 219 222 222 220 223 228 235 236 232 230 229 228 227 227 226 225 224 224 224 224 224 225 227 228 229 229 229 228 227 229 230 230 226 223 221 221 222 223 225 227 229 230 232 234 235 236 237 237 236 238 240 240 240 240 240 241 242 239 238 238 237 236 235 236 237 237 232 228 233 239 239 237 237 237 237 239 241
235 231 226 221 219 219 219 219 219 218 218 217 220 221 219 221 225 232 236 233 230 229 228 228 228 227 226 225 225 225 225 225 225 226 227 228 229 229 228 227 228 230 232 231 227 224 222 222 222 223 225 227 230 232 234 236 237 238 239 239 239 240 242 242 242 241 241 243 243 240 239 239 238 237 238 239 239 238 232 231 237 241 241 240 240 240 241 243
237 234 228 221 217 217 217 217 217 216 215 216 218 217 215 218 221 226 233 234 232 232 231 231 230 229 227 225 225 226 225 225 225 226 226 228 228 228 228 227 227 229 231 232 231 229 226 224 222 222 224 227 230 232 234 235 236 238 239 239 239 240 241 243 244 244 243 243 245 245 243 241 239 237 238 240 240 240 237 234 235 240 244 243 242 242 242 243
236 233 229 222 217 215 214 215 216 214 213 214 215 213 212 215 219 223 232 237 236 234 232 230 228 227 226 224 224 225 225 225 226 225 225 227 228 228 227 227 227 228 230 231 232 233 231 228 225 223 223 226 229 232 234 235 236 238 239 240 240 240 240 241 244 246 247 245 245 246 245 242 240 238 237 238 239 240 239 237 236 239 243 245 244 243 243 244
235 230 227 223 218 214 212 213 214 213 212 213 214 213 211 214 219 223 230 236 236 234 232 229 227 226 225 224 223 224 226 226 227 226 226 227 228 228 228 228 228 228 229 231 232 233 234 231 228 226 224 225 228 230 232 234 234 236 238 240 240 241 241 240 241 244 247 247 244 243 244 242 241 239 237 238 238 240 241 239 238 239 241 244 246 246 245 246
234 229 224 221 217 213 211 210 212 212 212 213 214 214 212 213 218 222 227 232 232 232 231 229 228 226 225 224 223 223 224 225 226 226 226 227 228 228 228 228 229 228 229 231 231 233 233 231 230 230 227 226 227 228 230 231 232 234 236 238 239 240 241 241 241 242 244 246 246 243 242 241 240 239 238 239 241 241 241 241 240 240 241 243 246 247 247 247
233 227 221 218 214 211 209 208 210 211 211 212 213 214 213 213 217 222 227 232 232 231 229 227 228 227 226 225 224 224 223 224 225 225 226 227 228 228 229 229 229 229 230 232 233 234 234 232 233 233 231 229 229 229 229 230 231 232 234 236 238 240 242 242 242 242 243 245 246 245 244 241 239 240 240 240 243 243 241 240 239 240 242 243 245 247 248 249
230 226 220 215 211 207 205 205 209 210 210 211 211 211 211 211 215 221 227 232 233 230 227 223 222 223 225 225 225 225 224 224 224 224 225 226 227 228 229 229 229 228 229 231 233 235 234 233 234 234 233 233 232 231 230 230 231 232 233 235 238 240 242 243 243 244 244 245 246 247 246 244 240 240 241 240 241 243 243 240 238 240 243 244 245 247 250 251
227 225 219 213 209 203 202 203 206 207 208 209 208 208 209 209 212 221 226 231 232 229 227 225 221 220 222 223 225 226 225 224 224 224 224 225 226 227 227 228 229 228 229 230 232 233 233 233 234 234 234 235 234 234 233 232 232 232 233 235 238 241 243 244 244 245 246 246 247 248 247 246 242 239 240 241 241 244 246 244 239 240 242 244 246 247 248 250
222 222 218 212 208 202 201 202 204 206 206 206 206 207 207 207 212 221 225 229 231 229 228 228 225 221 221 222 223 225 225 224 224 224 224 226 227 227 226 227 228 228 229 229 230 231 232 233 234 234 236 236 236 236 235 236 235 233 233 235 237 239 242 244 245 246 246 247 248 248 247 247 243 239 240 243 243 244 246 246 243 241 242 243 245 246 246 248
218 218 216 212 207 201 200 201 203 205 204 204 206 207 206 204 212 222 225 228 231 229 227 227 226 223 221 222 222 222 223 223 224 225 224 225 227 227 227 227 227 228 229 230 231 231 232 233 234 235 236 237 237 237 238 239 239 236 236 237 237 239 241 242 244 246 246 248 248 247 247 248 244 239 239 242 243 244 245 247 245 243 242 242 243 244 244 246
215 213 212 210 206 200 199 201 202 201 201 203 205 207 205 202 210 220 223 226 229 229 228 226 225 222 220 221 221 221 221 220 221 222 222 224 226 227 228 227 227 227 228 230 231 232 232 233 234 235 236 237 238 238 239 240 241 239 240 241 240 241 242 241 243 244 246 248 247 245 246 249 246 241 240 241 241 242 244 247 246 244 243 242 242 243 243 246
212 208 207 207 202 199 200 201 200 198 199 201 202 206 204 202 211 219 219 222 224 227 227 225 224 224 222 222 222 221 221 221 221 220 220 223 225 227 227 225 225 225 226 228 228 229 231 231 232 234 235 236 237 239 239 240 240 240 242 242 242 244 245 243 243 244 246 247 245 245 247 249 248 243 241 242 241 241 243 245 247 245 244 243 244 244 244 246
209 203 203 202 197 198 201 201 198 196 198 199 200 206 203 202 214 221 220 220 220 222 224 222 223 223 222 223 223 223 222 222 221 219 220 221 221 224 225 223 223 223 223 225 226 226 228 229 229 232 234 234 236 238 239 240 240 240 241 241 242 244 246 246 245 244 246 245 244 246 247 249 249 244 242 243 243 242 242 244 246 246 246 246 247 247 246 247
205 200 199 197 195 199 200 199 197 196 198 197 199 205 202 202 214 221 219 217 217 219 219 218 222 222 222 224 224 223 224 224 224 222 221 221 221 222 224 224 225 224 224 225 225 226 228 230 229 230 231 231 233 235 237 238 239 240 241 241 241 243 244 246 246 245 245 245 245 246 246 247 248 246 245 244 245 245 243 243 246 247 246 246 247 248 248 249
202 198 195 194 197 200 198 196 195 194 196 196 199 204 202 204 214 218 215 214 216 219 220 220 225 226 225 226 226 224 223 225 226 225 224 223 222 222 223 224 225 225 225 226 226 225 226 227 226 225 227 228 230 232 234 236 238 240 242 242 242 243 244 245 246 247 247 245 245 247 247 247 247 246 247 246 246 248 247 245 246 246 246 244 244 246 248 249
200 196 193 194 198 199 196 194 194 193 194 195 199 204 203 206 214 216 215 215 216 219 221 222 226 226 224 225 226 225 223 223 223 224 225 224 223 222 222 223 223 224 225 225 226 226 226 226 226 226 228 229 230 232 234 237 240 242 243 245 245 244 247 248 249 251 251 249 249 249 249 249 247 246 247 248 248 249 249 249 247 247 247 246 245 246 247 248
197 193 192 193 196 196 194 193 193 194 194 195 200 205 204 207 211 214 216 216 216 218 221 224 226 227 224 222 222 223 223 223 222 222 223 224 225 225 225 225 225 225 225 224 225 226 228 229 229 231 232 231 233 234 235 235 237 239 242 244 245 246 248 251 251 252 253 252 251 250 249 249 249 248 247 248 248 248 250 251 250 250 249 248 247 247 246 246
195 192 190 191 193 193 192 191 191 194 194 196 202 204 204 207 210 212 216 218 218 219 220 219 219 221 223 222 221 220 220 221 221 223 223 223 224 225 225 226 226 226 226 226 227 226 228 229 229 230 231 231 233 235 236 235 237 240 240 242 245 247 247 249 250 252 253 254 252 250 249 249 249 249 247 247 248 248 249 250 251 251 251 251 249 248 248 247
194 192 191 190 191 192 191 191 191 194 195 198 203 203 203 207 209 210 215 218 219 220 220 218 217 221 225 225 225 224 222 222 220 222 224 224 224 225 225 226 226 227 228 229 229 228 229 230 229 228 230 231 232 233 235 235 237 240 242 243 244 244 244 245 248 249 250 253 253 252 251 250 250 249 248 248 249 251 252 252 251 251 251 252 252 251 250 250
193 193 191 189 190 191 190 191 192 194 196 200 203 202 201 205 208 209 213 218 219 220 223 224 225 228 233 233 232 230 229 227 225 224 225 225 226 226 227 227 228 229 229 229 230 230 230 231 230 229 230 230 230 230 231 232 233 237 240 242 242 243 244 245 247 249 251 254 256 255 254 253 252 252 252 252 252 253 254 254 253 251 251 252 253 253 253 251
194 194 192 189 189 189 189 191 193 195 198 201 202 201 200 203 207 209 213 217 220 221 224 227 229 230 233 234 234 233 232 231 231 231 230 230 229 228 229 230 230 230 230 229 231 231 232 232 232 231 231 231 230 230 230 230 231 233 235 237 239 242 246 248 250 252 254 256 258 257 256 255 253 254 256 256 255 254 254 254 254 254 254 254 255 255 255 254
194 193 191 188 188 188 189 191 193 196 200 201 200 200 199 201 205 209 213 217 220 222 223 225 228 228 231 233 234 233 233 233 233 232 232 233 233 231 229 230 230 230 229 230 231 231 231 231 231 231 230 230 231 232 233 232 233 234 235 236 238 240 242 245 248 250 251 254 256 256 256 256 254 254 256 256 256 257 258 258 259 258 257 257 257 257 258 258
193 191 189 186 187 188 189 191 194 197 200 200 200 199 198 200 204 208 212 215 218 220 222 224 226 227 231 234 234 232 232 232 232 232 232 232 232 232 231 232 233 232 231 230 230 231 231 231 231 231 231 231 232 234 235 234 234 235 237 238 240 241 241 243 245 247 248 250 253 255 257 257 256 256 258 259 260 262 263 264 265 266 263 260 259 258 258 258
191 190 187 185 187 190 192 193 195 197 198 198 199 197 195 199 204 208 212 215 216 217 218 220 222 224 226 228 229 229 229 230 232 232 232 232 232 233 233 232 233 233 232 232 232 233 234 234 232 232 232 232 233 235 236 236 235 236 236 237 238 239 240 242 245 248 250 251 252 255 257 257 258 260 261 262 263 264 264 263 264 266 267 264 261 259 258 257
188 188 187 188 190 193 196 196 194 196 198 197 197 195 195 200 207 210 212 214 214 214 215 216 217 218 221 223 224 225 227 229 231 232 233 233 231 231 230 228 229 230 231 231 231 231 231 233 232 232 233 232 231 232 234 235 237 237 237 238 238 239 240 242 244 247 249 251 251 253 254 256 258 259 260 262 263 263 263 263 262 263 265 265 263 260 259 258
185 186 189 193 194 197 199 198 194 194 196 196 194 195 197 202 208 210 212 213 213 214 215 215 214 215 218 222 223 223 225 228 230 230 230 230 229 229 230 228 227 230 231 231 231 230 230 231 232 231 231 231 229 228 230 232 234 237 238 239 240 240 240 241 242 243 246 248 249 250 252 254 256 258 259 260 262 262 262 262 262 262 262 264 265 263 261 260
182 184 189 195 197 199 199 197 195 195 196 193 191 193 198 202 205 208 211 213 214 215 216 214 213 214 216 220 222 223 224 225 227 228 227 227 227 227 228 227 225 228 230 231 232 231 230 231 231 231 231 232 232 233 233 234 236 237 237 238 239 240 240 241 242 242 244 246 247 248 251 251 252 254 257 257 257 258 258 259 261 262 263 263 264 264 263 261
182 185 192 197 200 200 197 194 195 198 198 193 190 193 199 202 204 206 208 211 212 215 217 214 213 214 216 219 221 221 222 223 227 229 228 227 227 226 227 227 226 225 227 229 229 230 230 231 231 232 234 235 237 239 239 238 238 237 237 237 238 240 241 242 243 243 243 245 247 248 249 249 248 250 254 255 254 254 256 258 260 262 264 265 264 265 265 264
185 188 195 199 200 199 196 192 194 200 199 194 192 196 199 201 204 206 207 209 211 215 218 216 216 217 218 220 221 222 224 227 231 233 232 230 228 228 227 227 227 227 226 227 229 229 231 232 232 234 236 236 237 238 238 238 238 238 238 237 237 239 239 239 240 242 243 244 246 247 248 248 245 246 250 253 254 254 255 258 260 261 262 264 264 264 264 264
186 187 196 202 200 199 198 192 192 199 199 195 195 199 200 201 204 206 207 209 211 215 219 219 217 217 218 220 222 225 227 230 232 234 233 232 229 229 229 228 229 229 229 229 231 232 233 234 234 235 237 236 235 236 237 238 239 239 238 238 238 238 239 238 238 239 241 243 244 245 246 246 244 242 246 251 254 256 256 257 258 260 261 261 262 262 262 261
187 186 192 200 202 201 198 194 195 198 197 196 198 201 200 201 203 207 209 211 213 216 220 222 219 217 218 220 222 225 228 230 234 234 234 233 231 230 229 229 229 229 230 231 231 233 236 236 235 236 237 236 235 235 237 238 239 240 239 239 238 238 239 239 239 239 240 242 243 243 243 243 241 239 242 247 252 254 255 254 255 257 259 260 261 261 261 260
188 188 188 196 202 200 197 198 200 198 193 196 202 202 200 201 204 208 211 213 216 220 224 226 221 217 217 220 220 223 225 227 230 233 235 235 235 233 231 230 229 229 229 230 230 231 234 236 235 237 239 237 235 236 237 239 240 241 241 240 240 239 239 240 241 241 242 244 245 246 245 244 242 240 241 244 248 252 255 255 254 253 254 256 259 261 261 261
190 190 190 194 198 198 198 202 202 196 191 196 203 202 200 202 205 209 212 214 218 222 226 227 222 216 216 218 219 221 224 226 226 229 232 233 234 234 233 232 232 231 230 230 230 230 232 234 235 237 239 237 236 237 238 240 241 242 240 240 241 241 242 242 243 244 245 247 247 247 247 247 245 243 241 242 244 249 253 255 256 256 256 257 259 262 263 262
192 192 192 194 196 197 200 204 204 197 194 198 203 201 200 202 206 209 211 213 218 222 223 222 220 218 217 218 218 221 225 228 229 229 230 231 230 230 231 231 231 231 230 231 231 231 232 235 236 238 240 238 236 238 240 241 242 242 241 240 242 244 245 245 245 245 246 247 248 248 249 250 248 244 242 241 243 247 250 252 255 258 260 260 261 262 263 264
Height
5657 5660 5664 5667 5671 5674 5678 5682 5686 5691 5694 5699 5703 5707 5711 5715 5719 5723 5727 5732 5735 5739 5742 5746 5750 5753 5757 5760 5764 5768 5772 5776 5781 5785 5790 5796 5799 5802 5806 5809 5811 5814 5816 5819 5821 5823 5826 5829 5831 5833 5835 5837 5838 5841 5843 5845 5847 5849 5852 5854 5856 5858 5859 5859 5860 5861 5860 5864 5867 5868 5870 5871 5873 5874 5875 5876 5877 5878 5879 5879 5880 5881 5882 5883 5884 5885 5886 5887
5649 5652 5656 5659 5663 5667 5670 5674 5678 5683 5687 5691 5696 5700 5704 5708 5713 5717 5721 5725 5729 5733 5736 5740 5744 5748 5752 5755 5759 5763 5767 5771 5775 5780 5788 5793 5794 5798 5802 5804 5807 5810 5813 5816 5818 5820 5822 5825 5827 5829 5832 5834 5836 5838 5841 5843 5844 5847 5849 5851 5855 5857 5856 5856 5857 5858 5859 5863 5865 5866 5867 5869 5871 5873 5873 5874 5875 5876 5877 5878 5879 5880 5882 5883 5884 5884 5885 5886
5642 5644 5648 5651 5656 5659 5662 5667 5671 5675 5680 5684 5688 5693 5697 5701 5706 5711 5715 5719 5723 5727 5731 5734 5738 5742 5746 5750 5753 5757 5761 5765 5769 5778 5785 5787 5790 5794 5797 5799 5803 5806 5810 5812 5814 5816 5819 5821 5823 5826 5829 5831 5833 5835 5838 5840 5842 5844 5846 5849 5853 5854 5853 5854 5855 5857 5859 5862 5862 5864 5865 5867 5869 5870 5872 5873 5874 5875 5875 5876 5877 5879 5881 5882 5883 5883 5885 5885
5634 5636 5640 5644 5648 5651 5655 5660 5663 5667 5672 5676 5681 5685 5690 5695 5699 5704 5708 5712 5717 5721 5725 5729 5732 5736 5740 5743 5747 5752 5756 5758 5765 5774 5779 5781 5785 5789 5792 5795 5798 5802 5806 5808 5810 5812 5815 5818 5820 5823 5826 5827 5830 5832 5834 5837 5840 5842 5843 5847 5850 5850 5851 5851 5853 5856 5858 5859 5861 5862 5863 5865 5867 5868 5869 5871 5872 5872 5874 5876 5877 5879 5880 5881 5882 5882 5883 5884
5625 5628 5632 5636 5640 5643 5647 5652 5656 5659 5664 5669 5674 5678 5683 5688 5692 5697 5701 5706 5710 5715 5719 5722 5726 5730 5733 5737 5741 5746 5749 5753 5760 5768 5772 5776 5781 5785 5787 5791 5794 5797 5801 5804 5806 5808 5812 5814 5816 5818 5821 5824 5827 5829 5831 5835 5838 5839 5841 5845 5846 5847 5848 5847 5850 5856 5856 5857 5859 5860 5860 5863 5866 5866 5867 5869 5869 5870 5873 5875 5876 5878 5879 5879 5880 5881 5882 5883
5617 5620 5623 5627 5632 5635 5640 5644 5648 5652 5657 5662 5666 5671 5675 5681 5686 5690 5694 5699 5703 5708 5712 5716 5720 5724 5728 5731 5735 5739 5743 5749 5757 5762 5767 5771 5776 5779 5781 5785 5790 5793 5796 5800 5802 5804 5807 5810 5811 5813 5817 5820 5823 5825 5830 5833 5835 5836 5838 5842 5843 5844 5844 5844 5850 5855 5853 5854 5856 5857 5859 5862 5863 5863 5865 5867 5867 5869 5872 5874 5874 5875 5876 5877 5878 5879 5880 5881
5608 5611 5615 5619 5624 5628 5632 5636 5641 5645 5650 5655 5659 5663 5668 5673 5679 5683 5688 5692 5696 5701 5705 5710 5714 5718 5721 5724 5728 5732 5737 5747 5754 5757 5761 5766 5770 5774 5776 5780 5785 5788 5791 5795 5798 5800 5803 5805 5807 5810 5814 5816 5820 5823 5827 5830 5830 5832 5835 5839 5840 5840 5840 5842 5847 5851 5849 5851 5853 5855 5858 5859 5860 5861 5863 5865 5865 5867 5870 5871 5872 5873 5874 5875 5876 5878 5879 5880
5599 5603 5606 5610 5615 5620 5624 5628 5634 5638 5643 5647 5650 5655 5660 5666 5671 5677 5681 5685 5690 5694 5698 5703 5707 5711 5715 5718 5722 5725 5733 5746 5751 5752 5756 5761 5765 5769 5771 5775 5781 5785 5788 5791 5794 5797 5799 5802 5804 5807 5811 5813 5817 5820 5823 5826 5826 5828 5832 5836 5837 5836 5837 5839 5844 5847 5847 5848 5851 5853 5855 5856 5857 5859 5862 5862 5863 5865 5867 5868 5870 5871 5872 5873 5874 5876 5877 5878
5589 5594 5598 5602 5607 5611 5616 5621 5626 5631 5635 5638 5643 5648 5653 5658 5664 5669 5674 5679 5684 5688 5692 5696 5700 5705 5708 5712 5716 5720 5733 5745 5745 5743 5749 5756 5760 5763 5767 5771 5777 5781 5784 5787 5789 5792 5795 5799 5801 5804 5807 5809 5813 5816 5819 5820 5821 5824 5828 5833 5833 5832 5834 5837 5841 5844 5844 5845 5848 5851 5852 5854 5855 5857 5860 5860 5861 5863 5865 5866 5867 5868 5869 5871 5872 5874 5875 5876
5578 5584 5588 5593 5598 5603 5608 5613 5619 5624 5628 5631 5637 5641 5645 5650 5656 5662 5667 5672 5677 5681 5685 5688 5693 5698 5701 5706 5710 5718 5733 5739 5736 5736 5742 5750 5754 5758 5762 5765 5771 5776 5779 5782 5785 5788 5792 5795 5797 5799 5801 5805 5808 5810 5813 5815 5818 5821 5823 5828 5828 5828 5831 5834 5837 5839 5841 5842 5845 5847 5849 5851 5852 5855 5858 5859 5859 5861 5863 5864 5864 5866 5867 5868 5870 5871 5873 5874
5567 5573 5579 5584 5589 5595 5600 5606 5612 5617 5621 5625 5630 5634 5638 5644 5650 5655 5660 5664 5670 5674 5678 5682 5686 5690 5694 5699 5705 5718 5729 5730 5730 5731 5735 5743 5748 5752 5756 5760 5765 5770 5774 5777 5780 5783 5787 5789 5791 5793 5795 5799 5802 5805 5808 5810 5814 5817 5817 5822 5824 5824 5827 5830 5833 5835 5838 5840 5842 5844 5846 5848 5849 5853 5858 5857 5857 5858 5860 5861 5861 5863 5864 5865 5867 5869 5870 5872
5556 5562 5569 5575 5581 5587 5593 5598 5604 5609 5615 5620 5623 5629 5633 5638 5643 5648 5653 5658 5662 5667 5671 5675 5679 5683 5687 5692 5703 5716 5721 5722 5724 5725 5729 5737 5742 5746 5751 5754 5758 5764 5768 5772 5775 5778 5781 5782 5784 5787 5789 5793 5796 5799 5803 5807 5810 5812 5812 5817 5821 5822 5823 5827 5830 5833 5836 5837 5839 5841 5841 5845 5848 5853 5856 5854 5854 5855 5856 5858 5859 5861 5862 5863 5864 5866 5868 5869
5545 5552 5559 5565 5572 5579 5585 5591 5597 5603 5609 5614 5619 5624 5627 5632 5636 5640 5645 5651 5655 5660 5664 5668 5672 5676 5679 5688 5703 5711 5711 5715 5718 5719 5724 5730 5736 5742 5746 5749 5752 5757 5762 5766 5770 5773 5775 5776 5779 5784 5785 5788 5792 5795 5800 5804 5805 5807 5809 5813 5817 5819 5820 5824 5827 5830 5833 5833 5836 5836 5837 5843 5847 5850 5851 5850 5851 5852 5853 5855 5857 5858 5859 5861 5862 5863 5865 5867
5534 5541 5548 5556 5563 5571 5578 5584 5590 5596 5603 5609 5614 5618 5622 5625 5628 5633 5638 5643 5648 5653 5657 5660 5664 5668 5672 5687 5699 5701 5703 5707 5711 5715 5720 5725 5732 5737 5740 5744 5746 5751 5756 5760 5764 5767 5769 5773 5777 5780 5781 5784 5789 5792 5796 5798 5799 5803 5806 5808 5812 5814 5816 5821 5823 5826 5830 5830 5833 5832 5833 5840 5845 5846 5846 5847 5848 5849 5852 5853 5854 5855 5857 5858 5860 5861 5863 5864
5525 5532 5539 5546 5554 5563 5571 5576 5583 5590 5597 5603 5608 5614 5619 5620 5622 5626 5630 5636 5641 5645 5649 5653 5657 5661 5669 5682 5689 5692 5697 5701 5708 5713 5715 5720 5726 5731 5735 5738 5741 5745 5749 5753 5757 5760 5765 5770 5773 5776 5777 5780 5784 5787 5790 5792 5795 5799 5801 5804 5808 5810 5813 5818 5820 5822 5826 5828 5828 5827 5829 5837 5842 5842 5842 5844 5847 5847 5849 5851 5851 5853 5854 5856 5857 5859 5861 5862
5516 5523 5529 5537 5546 5555 5563 5569 5577 5584 5591 5598 5603 5609 5614 5616 5617 5620 5623 5629 5633 5637 5641 5645 5650 5655 5664 5675 5681 5686 5692 5698 5706 5708 5710 5716 5720 5725 5730 5732 5735 5739 5743 5747 5750 5754 5759 5764 5767 5769 5772 5775 5778 5782 5785 5786 5790 5795 5797 5801 5804 5806 5810 5814 5815 5819 5822 5823 5822 5822 5826 5833 5838 5839 5839 5840 5844 5845 5847 5848 5849 5850 5851 5853 5855 5857 5858 5860
5509 5515 5521 5529 5538 5547 5555 5562 5570 5579 5586 5592 5598 5603 5608 5612 5614 5615 5617 5620 5624 5629 5633 5638 5644 5649 5657 5668 5675 5682 5690 5696 5700 5702 5706 5711 5714 5719 5724 5727 5730 5734 5738 5741 5743 5748 5753 5757 5760 5764 5766 5769 5773 5776 5777 5780 5785 5790 5794 5798 5800 5802 5806 5809 5811 5815 5815 5815 5817 5819 5823 5828 5833 5836 5836 5837 5840 5842 5844 5845 5846 5848 5849 5850 5852 5854 5856 5857
5504 5508 5514 5522 5530 5539 5548 5556 5564 5573 5580 5587 5593 5598 5604 5608 5610 5609 5608 5610 5615 5618 5622 5629 5635 5640 5652 5666 5675 5681 5686 5690 5694 5697 5700 5703 5708 5713 5718 5722 5725 5728 5732 5733 5737 5743 5746 5749 5754 5757 5759 5763 5767 5769 5772 5778 5784 5788 5792 5796 5797 5798 5801 5803 5807 5810 5809 5809 5813 5816 5820 5823 5828 5831 5832 5834 5836 5838 5842 5843 5843 5844 5846 5848 5850 5852 5853 5854
5498 5502 5507 5514 5522 5532 5541 5549 5558 5567 5576 5583 5589 5595 5600 5603 5604 5602 5599 5601 5605 5609 5618 5627 5634 5644 5658 5669 5674 5677 5680 5684 5687 5689 5692 5697 5702 5706 5711 5717 5720 5721 5723 5726 5733 5737 5739 5742 5745 5748 5754 5759 5764 5767 5771 5777 5782 5786 5789 5792 5793 5794 5796 5799 5802 5804 5805 5806 5809 5813 5816 5819 5824 5827 5829 5831 5832 5833 5837 5840 5840 5841 5843 5846 5848 5849 5851 5852
5492 5496 5501 5507 5515 5525 5535 5544 5552 5561 5570 5577 5583 5588 5590 5590 5591 5591 5590 5595 5603 5613 5624 5631 5638 5648 5655 5661 5667 5669 5673 5676 5676 5680 5685 5690 5694 5699 5704 5709 5713 5714 5716 5721 5728 5731 5733 5734 5737 5745 5755 5760 5763 5766 5769 5773 5778 5782 5783 5785 5788 5790 5793 5796 5797 5798 5800 5803 5805 5809 5813 5815 5818 5822 5824 5826 5827 5828 5832 5836 5838 5839 5841 5843 5845 5846 5848 5849
5487 5491 5495 5501 5509 5518 5529 5538 5546 5555 5564 5569 5573 5575 5577 5580 5584 5588 5593 5599 5607 5615 5619 5623 5631 5637 5640 5649 5656 5659 5662 5664 5667 5673 5679 5683 5687 5692 5697 5703 5707 5709 5713 5718 5722 5725 5726 5728 5737 5748 5754 5758 5759 5762 5765 5769 5775 5776 5777 5780 5783 5785 5788 5792 5792 5793 5795 5798 5802 5805 5807 5810 5812 5816 5819 5820 5822 5823 5826 5831 5835 5837 5838 5839 5841 5843 5845 5846
5482 5486 5491 5496 5503 5512 5522 5532 5540 5550 5558 5561 5563 5565 5572 5580 5586 5593 5596 5598 5603 5608 5610 5614 5621 5624 5631 5641 5647 5650 5654 5658 5663 5668 5674 5678 5681 5686 5693 5697 5700 5706 5711 5711 5713 5716 5717 5725 5739 5747 5750 5752 5753 5755 5758 5763 5768 5770 5772 5775 5776 5779 5783 5786 5788 5789 5789 5791 5796 5799 5800 5803 5807 5811 5814 5815 5817 5819 5823 5828 5832 5833 5834 5835 5838 5840 5841 5842
5477 5481 5486 5491 5498 5508 5516 5526 5535 5543 5549 5552 5555 5563 5573 5580 5586 5589 5590 5591 5596 5599 5601 5608 5614 5619 5627 5634 5637 5641 5646 5651 5656 5664 5670 5673 5677 5683 5688 5691 5696 5703 5704 5703 5708 5710 5714 5728 5740 5742 5744 5746 5745 5747 5751 5756 5760 5763 5766 5768 5770 5774 5775 5779 5783 5783 5783 5784 5787 5791 5792 5796 5801 5805 5809 5812 5814 5816 5820 5824 5827 5829 5830 5832 5835 5836 5837 5839
5473 5477 5481 5487 5495 5502 5511 5521 5528 5533 5540 5545 5552 5563 5572 5577 5582 5585 5587 5588 5589 5592 5597 5603 5609 5615 5621 5625 5629 5633 5638 5644 5651 5659 5664 5667 5674 5679 5682 5687 5693 5697 5698 5701 5706 5708 5716 5729 5732 5733 5738 5740 5739 5740 5745 5749 5753 5758 5760 5762 5766 5768 5770 5774 5777 5777 5779 5778 5779 5784 5785 5789 5798 5802 5806 5811 5811 5812 5816 5819 5822 5824 5826 5829 5831 5832 5834 5836
5468 5472 5477 5484 5489 5497 5507 5514 5519 5527 5535 5541 5549 5561 5568 5573 5580 5583 5584 5582 5582 5586 5590 5592 5597 5605 5612 5618 5624 5628 5634 5641 5646 5653 5658 5663 5669 5673 5678 5683 5685 5688 5693 5699 5703 5705 5714 5721 5722 5727 5732 5732 5733 5735 5740 5745 5750 5753 5755 5759 5763 5764 5765 5769 5771 5772 5774 5773 5775 5779 5779 5784 5794 5798 5801 5806 5807 5807 5811 5815 5819 5821 5823 5825 5826 5829 5831 5833
5463 5467 5472 5479 5485 5493 5499 5503 5514 5524 5530 5537 5547 5557 5562 5570 5577 5578 5578 5575 5574 5579 5582 5584 5591 5599 5606 5613 5618 5623 5629 5635 5641 5647 5654 5659 5663 5667 5672 5675 5678 5685 5691 5696 5698 5700 5708 5713 5717 5722 5724 5724 5727 5730 5737 5743 5744 5747 5752 5758 5759 5758 5761 5763 5767 5768 5768 5769 5771 5772 5774 5778 5785 5793 5797 5800 5803 5805 5807 5811 5817 5818 5819 5821 5823 5826 5828 5828
5457 5462 5468 5474 5481 5486 5490 5500 5512 5517 5523 5535 5546 5553 5559 5568 5573 5573 5572 5567 5564 5571 5578 5582 5589 5597 5604 5608 5613 5616 5621 5630 5637 5643 5650 5655 5658 5662 5665 5668 5675 5683 5687 5689 5689 5693 5702 5708 5711 5715 5717 5718 5722 5728 5736 5739 5739 5743 5751 5753 5752 5753 5756 5759 5761 5761 5762 5764 5763 5765 5772 5772 5775 5787 5795 5797 5800 5802 5803 5807 5812 5814 5815 5818 5819 5821 5823 5824
5453 5458 5463 5470 5476 5481 5489 5500 5507 5512 5526 5538 5544 5550 5557 5565 5568 5566 5564 5557 5556 5567 5575 5580 5588 5596 5600 5602 5605 5609 5617 5629 5635 5638 5646 5649 5651 5656 5659 5665 5675 5680 5682 5682 5684 5692 5700 5703 5706 5711 5711 5712 5719 5728 5734 5733 5734 5742 5746 5744 5746 5749 5750 5753 5754 5754 5757 5756 5753 5761 5769 5766 5768 5784 5792 5792 5794 5797 5799 5802 5806 5810 5811 5813 5815 5816 5818 5819
5448 5453 5459 5467 5473 5479 5487 5494 5501 5514 5527 5532 5536 5545 5553 5559 5561 5558 5554 5550 5554 5564 5571 5578 5584 5588 5591 5595 5599 5605 5614 5621 5624 5631 5639 5642 5645 5650 5655 5664 5671 5673 5674 5676 5682 5690 5695 5698 5702 5704 5704 5709 5719 5724 5726 5726 5730 5738 5737 5737 5743 5743 5742 5748 5747 5748 5750 5744 5746 5758 5766 5763 5763 5776 5786 5785 5788 5793 5795 5797 5800 5804 5807 5808 5810 5812 5814 5815
5444 5449 5456 5461 5467 5475 5482 5488 5499 5511 5518 5522 5531 5540 5547 5550 5550 5546 5541 5542 5552 5560 5566 5574 5579 5582 5588 5592 5596 5602 5610 5614 5618 5628 5634 5636 5640 5645 5651 5660 5663 5664 5667 5670 5677 5684 5688 5693 5696 5696 5701 5710 5715 5715 5717 5722 5726 5729 5729 5732 5738 5736 5737 5742 5741 5745 5741 5734 5744 5756 5762 5761 5757 5767 5779 5778 5781 5788 5790 5792 5794 5799 5802 5805 5807 5808 5810 5810
5440 5446 5451 5457 5464 5472 5479 5487 5497 5505 5511 5519 5528 5533 5538 5541 5541 5535 5532 5542 5552 5554 5561 5570 5574 5579 5585 5588 5593 5600 5606 5609 5615 5624 5627 5630 5635 5639 5644 5650 5652 5656 5661 5663 5671 5679 5682 5686 5689 5693 5699 5705 5708 5708 5712 5717 5719 5721 5722 5727 5731 5730 5733 5734 5735 5738 5730 5730 5747 5754 5756 5756 5750 5759 5771 5771 5775 5782 5785 5788 5790 5794 5799 5802 5804 5804 5805 5806
5436 5442 5447 5454 5461 5466 5475 5487 5496 5503 5510 5516 5521 5525 5529 5532 5530 5527 5530 5543 5548 5547 5558 5568 5571 5578 5583 5586 5591 5598 5602 5606 5613 5620 5623 5626 5630 5634 5638 5642 5646 5651 5654 5659 5669 5675 5677 5681 5686 5690 5693 5697 5701 5703 5705 5708 5711 5714 5717 5721 5723 5724 5726 5726 5727 5728 5724 5732 5746 5746 5747 5746 5742 5752 5763 5766 5771 5775 5780 5784 5786 5790 5795 5798 5799 5799 5800 5802
5432 5439 5444 5451 5458 5464 5474 5484 5489 5496 5504 5510 5514 5517 5521 5521 5519 5521 5530 5540 5542 5547 5561 5569 5573 5579 5582 5584 5589 5594 5599 5604 5611 5616 5618 5621 5625 5629 5633 5637 5642 5647 5651 5659 5665 5668 5671 5676 5678 5680 5685 5691 5695 5696 5699 5703 5707 5710 5711 5714 5717 5719 5719 5718 5721 5721 5721 5732 5739 5739 5740 5734 5733 5748 5757 5761 5766 5768 5773 5779 5780 5784 5788 5791 5794 5794 5796 5797
5429 5436 5442 5448 5455 5464 5472 5477 5482 5489 5496 5501 5506 5509 5512 5512 5514 5522 5531 5537 5542 5551 5561 5567 5571 5575 5577 5581 5585 5590 5595 5599 5606 5610 5613 5616 5619 5622 5627 5631 5636 5641 5649 5656 5659 5662 5666 5668 5671 5677 5684 5689 5691 5693 5698 5702 5705 5706 5709 5711 5711 5714 5715 5716 5720 5718 5719 5728 5730 5731 5731 5722 5729 5747 5753 5755 5760 5764 5766 5769 5773 5777 5780 5784 5788 5790 5791 5792
5426 5432 5439 5445 5452 5460 5466 5472 5480 5487 5490 5495 5500 5501 5503 5506 5512 5521 5529 5535 5542 5551 5559 5563 5567 5570 5573 5577 5580 5585 5590 5595 5601 5604 5605 5609 5613 5618 5624 5628 5632 5638 5643 5648 5653 5659 5661 5665 5673 5679 5683 5687 5688 5692 5696 5698 5698 5701 5704 5703 5704 5711 5715 5714 5714 5712 5715 5719 5719 5722 5723 5720 5729 5742 5746 5749 5753 5757 5759 5761 5767 5771 5773 5778 5781 5783 5785 5785
5424 5430 5436 5442 5448 5455 5463 5469 5476 5481 5485 5490 5493 5494 5498 5505 5514 5523 5531 5538 5545 5552 5556 5558 5561 5565 5569 5572 5575 5580 5585 5590 5595 5597 5599 5605 5609 5614 5620 5624 5629 5634 5638 5644 5650 5654 5656 5662 5672 5675 5676 5681 5685 5688 5690 5692 5695 5697 5696 5697 5703 5710 5709 5707 5707 5708 5709 5708 5710 5715 5717 5720 5727 5732 5737 5743 5745 5748 5753 5756 5761 5763 5765 5768 5772 5775 5776 5777
5421 5427 5431 5437 5444 5451 5459 5466 5471 5475 5480 5485 5487 5490 5498 5508 5518 5525 5533 5539 5544 5549 5551 5553 5558 5562 5566 5570 5573 5578 5583 5585 5589 5591 5595 5601 5604 5609 5616 5621 5626 5631 5637 5644 5648 5650 5654 5660 5666 5667 5671 5678 5681 5682 5683 5688 5692 5691 5690 5697 5704 5702 5699 5701 5702 5702 5703 5702 5705 5711 5714 5719 5724 5725 5732 5738 5741 5745 5747 5749 5753 5756 5757 5759 5762 5765 5767 5769
5418 5423 5427 5433 5441 5448 5456 5462 5466 5471 5477 5480 5483 5490 5500 5509 5516 5523 5530 5535 5539 5543 5547 5552 5557 5561 5566 5570 5574 5578 5581 5582 5585 5589 5593 5597 5600 5607 5615 5619 5624 5629 5636 5641 5642 5645 5650 5654 5658 5662 5668 5672 5673 5673 5676 5682 5686 5685 5689 5695 5695 5692 5693 5696 5696 5696 5699 5698 5700 5707 5712 5714 5718 5723 5729 5734 5739 5741 5739 5740 5745 5748 5751 5753 5753 5755 5758 5761
5414 5419 5424 5431 5439 5445 5452 5457 5462 5467 5471 5474 5479 5488 5499 5507 5514 5521 5528 5532 5535 5540 5545 5550 5555 5560 5565 5569 5573 5576 5577 5580 5584 5588 5591 5593 5599 5608 5614 5617 5621 5627 5632 5634 5636 5640 5646 5649 5653 5658 5662 5663 5663 5664 5668 5676 5679 5680 5683 5685 5685 5687 5689 5691 5691 5693 5695 5694 5697 5703 5704 5706 5715 5723 5725 5727 5733 5732 5730 5734 5738 5741 5744 5745 5746 5748 5751 5754
5411 5417 5423 5430 5436 5442 5448 5454 5459 5462 5465 5470 5478 5488 5498 5507 5514 5521 5525 5528 5532 5538 5543 5548 5553 5558 5562 5566 5569 5571 5574 5578 5581 5584 5587 5591 5599 5606 5610 5612 5617 5623 5627 5628 5631 5635 5639 5642 5647 5652 5655 5655 5655 5658 5665 5672 5674 5673 5675 5677 5679 5683 5685 5685 5685 5687 5688 5689 5691 5694 5695 5702 5712 5717 5717 5721 5725 5724 5724 5729 5731 5733 5737 5738 5741 5744 5745 5746
5410 5416 5423 5429 5435 5440 5445 5449 5453 5457 5463 5471 5478 5487 5497 5505 5512 5517 5521 5525 5530 5536 5541 5546 5551 5555 5559 5562 5565 5568 5571 5574 5576 5580 5584 5588 5595 5601 5606 5611 5615 5619 5622 5622 5625 5629 5632 5637 5642 5645 5647 5648 5650 5656 5662 5665 5665 5667 5670 5673 5676 5679 5680 5680 5679 5679 5682 5684 5686 5689 5691 5698 5705 5710 5713 5716 5718 5721 5724 5725 5723 5723 5727 5731 5735 5737 5738 5740
5409 5416 5423 5429 5433 5437 5441 5445 5450 5456 5463 5469 5477 5487 5496 5503 5509 5514 5519 5523 5528 5533 5538 5543 5547 5552 5555 5558 5561 5565 5568 5570 5573 5577 5581 5586 5593 5599 5603 5608 5611 5613 5615 5616 5621 5626 5629 5633 5635 5637 5640 5644 5649 5654 5655 5655 5658 5661 5663 5666 5670 5672 5673 5675 5675 5677 5679 5679 5683 5685 5683 5690 5700 5707 5711 5711 5713 5718 5720 5720 5718 5716 5716 5720 5725 5729 5731 5734
5410 5418 5425 5429 5432 5435 5438 5442 5449 5455 5461 5469 5479 5488 5495 5501 5507 5511 5515 5519 5525 5530 5535 5540 5545 5549 5551 5554 5558 5561 5564 5567 5571 5575 5579 5585 5590 5593 5596 5600 5603 5606 5608 5611 5616 5620 5623 5625 5628 5632 5636 5639 5643 5647 5648 5650 5652 5653 5656 5660 5663 5665 5669 5671 5671 5674 5674 5672 5679 5679 5674 5684 5699 5704 5705 5705 5708 5711 5711 5711 5712 5711 5709 5709 5714 5721 5725 5727
5412 5420 5426 5429 5431 5434 5438 5442 5448 5454 5461 5469 5477 5485 5491 5498 5503 5508 5513 5518 5523 5528 5533 5538 5542 5545 5548 5551 5554 5558 5561 5564 5568 5572 5576 5580 5584 5587 5590 5594 5598 5600 5602 5606 5610 5614 5617 5619 5622 5626 5628 5629 5632 5636 5639 5644 5646 5647 5651 5655 5657 5660 5665 5664 5664 5669 5666 5665 5673 5672 5669 5684 5697 5697 5699 5701 5701 5702 5703 5703 5703 5703 5704 5703 5704 5711 5716 5720
5414 5420 5425 5428 5430 5434 5438 5445 5452 5458 5463 5469 5476 5483 5490 5495 5499 5506 5512 5516 5521 5526 5531 5535 5539 5542 5544 5547 5551 5555 5558 5561 5565 5568 5572 5575 5579 5582 5584 5589 5593 5595 5598 5602 5604 5608 5611 5612 5615 5617 5618 5620 5624 5630 5638 5643 5644 5643 5644 5648 5651 5654 5656 5657 5659 5661 5658 5660 5667 5665 5667 5683 5691 5690 5693 5694 5692 5693 5694 5694 5695 5696 5697 5698 5698 5701 5706 5711
5415 5419 5422 5424 5428 5433 5438 5446 5454 5459 5464 5470 5475 5481 5487 5492 5498 5503 5508 5513 5519 5523 5528 5532 5535 5538 5541 5544 5548 5552 5555 5558 5562 5565 5569 5572 5574 5578 5580 5584 5587 5589 5592 5594 5596 5600 5603 5604 5608 5611 5612 5617 5625 5632 5637 5638 5636 5635 5638 5643 5645 5647 5650 5651 5651 5651 5652 5656 5658 5659 5666 5677 5683 5686 5686 5682 5681 5686 5687 5688 5690 5690 5690 5691 5692 5695 5698 5701
5416 5420 5423 5424 5427 5432 5437 5444 5451 5457 5464 5470 5476 5481 5486 5491 5496 5500 5505 5510 5516 5521 5525 5529 5532 5535 5539 5543 5546 5549 5552 5555 5559 5562 5566 5568 5571 5574 5576 5579 5582 5584 5587 5588 5591 5595 5596 5598 5603 5606 5609 5615 5623 5626 5626 5625 5626 5628 5632 5636 5638 5639 5642 5642 5642 5645 5649 5649 5649 5655 5663 5668 5676 5684 5678 5670 5674 5680 5683 5684 5684 5684 5684 5683 5684 5688 5692 5693
5417 5422 5425 5427 5430 5434 5439 5445 5450 5456 5462 5468 5475 5482 5485 5489 5494 5499 5504 5509 5514 5518 5522 5526 5530 5534 5537 5540 5543 5546 5548 5551 5555 5559 5561 5564 5568 5571 5573 5576 5578 5579 5583 5585 5587 5590 5592 5595 5600 5602 5604 5610 5615 5616 5616 5617 5618 5621 5624 5628 5631 5632 5632 5632 5635 5640 5642 5640 5642 5650 5655 5658 5670 5676 5669 5666 5670 5672 5675 5677 5677 5677 5677 5676 5676 5679 5683 5686
5419 5422 5426 5430 5434 5439 5445 5450 5454 5457 5461 5467 5473 5477 5481 5487 5493 5498 5503 5508 5512 5516 5520 5525 5529 5532 5534 5537 5539 5542 5545 5549 5552 5555 5557 5560 5564 5566 5569 5571 5573 5576 5579 5581 5584 5587 5588 5591 5595 5595 5596 5601 5606 5608 5610 5610 5610 5612 5616 5620 5623 5624 5624 5625 5628 5633 5634 5632 5636 5644 5646 5650 5662 5667 5665 5665 5665 5663 5666 5669 5670 5671 5668 5667 5669 5670 5674 5678
5423 5426 5429 5432 5436 5441 5447 5451 5454 5456 5461 5466 5471 5475 5480 5485 5491 5497 5502 5506 5511 5515 5519 5523 5526 5529 5531 5534 5537 5540 5543 5545 5548 5551 5553 5557 5560 5563 5565 5566 5569 5572 5575 5577 5580 5583 5583 5585 5588 5588 5588 5593 5599 5603 5603 5603 5603 5605 5607 5611 5613 5615 5616 5617 5621 5627 5629 5628 5633 5639 5636 5640 5655 5663 5661 5661 5660 5658 5659 5660 5662 5664 5661 5661 5662 5663 5667 5671
5425 5428 5431 5434 5438 5442 5446 5450 5453 5456 5459 5464 5470 5475 5480 5484 5490 5495 5500 5505 5509 5513 5516 5520 5523 5525 5527 5530 5534 5537 5538 5540 5543 5546 5549 5552 5556 5559 5560 5562 5565 5568 5571 5573 5575 5577 5577 5578 5581 5581 5581 5586 5594 5597 5596 5596 5596 5594 5596 5601 5605 5607 5610 5614 5619 5624 5625 5625 5628 5629 5626 5634 5652 5659 5654 5655 5657 5655 5653 5653 5654 5655 5655 5656 5657 5657 5659 5663
5426 5428 5431 5434 5437 5441 5445 5449 5451 5455 5460 5465 5471 5476 5481 5486 5489 5492 5497 5502 5506 5509 5512 5515 5519 5522 5524 5528 5531 5532 5532 5535 5539 5542 5545 5547 5549 5551 5554 5557 5560 5563 5566 5568 5568 5571 5572 5573 5576 5577 5575 5582 5590 5590 5588 5589 5585 5580 5587 5598 5602 5604 5607 5611 5613 5617 5620 5620 5618 5618 5622 5633 5645 5647 5644 5648 5653 5650 5647 5647 5647 5646 5647 5648 5650 5651 5652 5654